This demonstration page uses our WeatherBlox Daily Observations layout. Learn more.

Left ArrowRight Arrow

Hourly Observations for January 11, 2022

Temp ( °F °C ) Dew Point ( °F °C ) Humidity (%) Winds ( mph kmh ) Pressure ( in mb ) Visibility ( mi km ) Precip ( " mm )
12:52 am 00:52 Mostly Clear 22 -5.6 13 -10.6 68 68 SSE 14 22 30.41 1030 10 16 0.00 0.00
1:52 am 01:52 Partly Cloudy 21 -6.1 13 -10.6 71 71 SSE 12 19 30.37 1029 10 16 0.00 0.00
2:52 am 02:52 Partly Cloudy 21 -6.1 13 -10.6 71 71 SSE 12 19 30.35 1028 10 16 0.00 0.00
3:52 am 03:52 Partly Cloudy 21 -6.1 14 -10 74 74 SSE 10 17 30.32 1027 10 16 0.00 0.00
4:52 am 04:52 Partly Cloudy 20 -6.7 14 -10 78 78 SSE 12 19 30.30 1026 10 16 0.00 0.00
5:52 am 05:52 Mostly Clear 25 -3.9 17 -8.3 72 72 SSE 16 26 30.27 1025 10 16 0.00 0.00
6:52 am 06:52 Mostly Clear 24 -4.4 17 -8.3 75 75 SSE 13 20 30.24 1024 10 16 0.00 0.00
7:52 am 07:52 Mostly Sunny 22 -5.6 17 -8.3 82 82 SSE 12 19 30.22 1024 10 16 0.00 0.00
8:52 am 08:52 Mostly Sunny 27 -2.8 19 -7.2 72 72 S 13 20 30.18 1022 10 16 0.00 0.00
9:52 am 09:52 Partly Cloudy 34 1.1 21 -6.1 59 59 SSE 5 7 30.19 1023 10 16 0.00 0.00
10:52 am 10:52 Partly Cloudy 42 5.6 23 -5 47 47 SSW 7 11 30.18 1022 10 16 0.00 0.00
11:52 am 11:52 Mostly Cloudy 48 8.9 23 -5 37 37 WSW 12 19 30.16 1021 10 16 0.00 0.00
12:52 pm 12:52 Mostly Cloudy 50 10 24 -4.4 36 36 W 8 13 30.14 1021 10 16 0.00 0.00
1:52 pm 13:52 Mostly Cloudy 53 11.7 23 -5 31 31 W 10 17 30.12 1020 10 16 0.00 0.00
2:52 pm 14:52 Mostly Cloudy 52 11.1 23 -5 32 32 SSW 8 13 30.08 1019 10 16 0.00 0.00
3:52 pm 15:52 Mostly Cloudy 52 11.1 24 -4.4 34 34 SSW 6 9 30.08 1019 10 16 0.00 0.00
4:52 pm 16:52 Mostly Cloudy 48 8.9 23 -5 37 37 S 5 7 30.10 1019 10 16 0.00 0.00
5:52 pm 17:52 Mostly Cloudy 43 6.1 23 -5 45 45 ESE 5 7 30.11 1020 10 16 0.00 0.00
6:52 pm 18:52 Cloudy 42 5.6 23 -5 47 47 SSW 5 7 30.14 1021 10 16 0.00 0.00
7:52 pm 19:52 Mostly Cloudy 36 2.2 22 -5.6 57 57 Calm 30.15 1021 10 16 0.00 0.00
8:52 pm 20:52 Partly Cloudy 33 0.6 21 -6.1 61 61 Calm 30.15 1021 10 16 0.00 0.00
9:52 pm 21:52 Partly Cloudy 32 0 21 -6.1 64 64 SE 5 7 30.13 1020 10 16 0.00 0.00
10:52 pm 22:52 Mostly Cloudy 33 0.6 22 -5.6 64 64 WSW 3 6 30.13 1020 10 16 0.00 0.00
11:52 pm 23:52 Mostly Cloudy 35 1.7 22 -5.6 59 59 N 3 6 30.13 1020 10 16 0.00 0.00

Powered by AerisWeather